Location: Newark
(50.8547°N, 2.7256°E)
Time: 20:26:21
(UTC+00:00)

Envisat - Pass Details

Date: 28 January 2020
Orbit: 764 x 766 km, 98.1° (Epoch: 23 February)

Event Time Altitude Azimuth Distance (km) Brightness Sun altitude
Rises 05:58:14 0° 19° (NNE) 3,245 6.4 -14.7°
Reaches altitude 10° 06:00:42 10° 28° (NNE) 2,314 5.7 -14.3°
Maximum altitude 06:05:27 38° 96° (E) 1,157 4.6 -13.6°
Drops below altitude 10° 06:10:10 10° 165° (SSE) 2,297 5.9 -12.8°
Sets 06:12:36 0° 173° (S) 3,218 6.5 -12.5°
